This demonstration page uses our WeatherBlox Daily Observations layout. Learn more.

Left ArrowRight Arrow

Hourly Observations for February 22, 2018

Temp ( °F °C ) Dew Point ( °F °C ) Humidity (%) Winds ( mph kmh ) Pressure ( in mb ) Visibility ( mi km ) Precip ( " mm )
12:15 am 00:15 Cloudy 64 18 57 14 78 78 N 8 13 30.42 1030 10 16.0934 0 0
12:35 am 00:35 Cloudy 64 18 57 14 78 78 N 5 7 30.42 1030 10 16.0934 0 0
12:55 am 00:55 Cloudy 64 18 57 14 78 78 NNE 9 15 30.42 1030 10 16.0934 0 0
1:15 am 01:15 Cloudy 64 18 57 14 78 78 NNE 12 19 30.42 1030 10 16.0934 0 0
1:35 am 01:35 Cloudy 63 17 57 14 83 83 NNE 10 17 30.42 1030 10 16.0934 0 0
1:55 am 01:55 Cloudy 59 15 54 12 82 82 NNE 13 20 30.45 1031 10 16.0934 0 0
2:15 am 02:15 Cloudy 57 14 52 11 82 82 NNE 16 26 30.45 1031 10 16.0934 0 0
2:35 am 02:35 Cloudy 55 13 50 10 82 82 NNE 12 19 30.48 1032 10 16.0934 0 0
2:55 am 02:55 Cloudy 55 13 50 10 82 82 NE 9 15 30.48 1032 10 16.0934 0 0
3:15 am 03:15 Cloudy with Light Rain 55 13 50 10 82 82 NNE 6 9 30.48 1032 10 16.0934 0 0
3:35 am 03:35 Cloudy 55 13 50 10 82 82 NNE 9 15 30.48 1032 10 16.0934 0 0
3:55 am 03:55 Cloudy 54 12 46 8 77 77 NNE 13 20 30.48 1032 10 16.0934 0 0
4:15 am 04:15 Cloudy 54 12 46 8 77 77 NE 9 15 30.48 1032 10 16.0934 0 0
4:35 am 04:35 Cloudy 54 12 46 8 77 77 NNE 9 15 30.48 1032 10 16.0934 0 0
4:55 am 04:55 Cloudy 54 12 45 7 72 72 NNE 9 15 30.48 1032 10 16.0934 0 0
5:15 am 05:15 Cloudy 52 11 45 7 77 77 NNE 10 17 30.48 1032 10 16.0934 0 0
5:35 am 05:35 Cloudy 52 11 45 7 77 77 NNE 10 17 30.48 1032 10 16.0934 0 0
5:55 am 05:55 Cloudy 52 11 45 7 77 77 NNE 10 17 30.48 1032 10 16.0934 0 0
6:15 am 06:15 Cloudy 50 10 45 7 82 82 NNE 8 13 30.48 1032 10 16.0934 0 0
6:35 am 06:35 Cloudy 50 10 45 7 82 82 NNE 13 20 30.5 1033 10 16.0934 0 0
6:55 am 06:55 Cloudy 50 10 43 6 76 76 NNE 12 19 30.5 1033 10 16.0934 0 0
7:15 am 07:15 Cloudy 50 10 43 6 76 76 NNE 9 15 30.5 1033 10 16.0934 0 0
7:35 am 07:35 Cloudy 50 10 41 5 71 71 NNE 9 15 30.53 1034 10 16.0934 0 0
7:55 am 07:55 Cloudy with Drizzle 50 10 41 5 71 71 NNE 10 17 30.53 1034 10 16.0934 0 0
8:15 am 08:15 Cloudy 50 10 41 5 71 71 NNE 9 15 30.53 1034 10 16.0934 0 0
8:35 am 08:35 Cloudy 50 10 39 4 67 67 NE 10 17 30.53 1034 10 16.0934 0 0
8:55 am 08:55 Cloudy 50 10 37 3 62 62 NNE 9 15 30.53 1034 10 16.0934 0 0
9:15 am 09:15 Cloudy 50 10 37 3 62 62 NE 9 15 30.53 1034 10 16.0934 0 0
9:35 am 09:35 Cloudy 50 10 37 3 62 62 NNE 9 15 30.53 1034 10 16.0934 0 0
9:55 am 09:55 Cloudy 50 10 37 3 62 62 NNE 8 13 30.53 1034 10 16.0934 0 0
10:15 am 10:15 Cloudy 50 10 37 3 62 62 NNE 10 17 30.53 1034 10 16.0934 0 0
10:35 am 10:35 Cloudy 48 9 39 4 71 71 NNE 9 15 30.53 1034 10 16.0934 0 0
10:55 am 10:55 Cloudy 48 9 39 4 71 71 NNE 8 13 30.53 1034 10 16.0934 0 0
11:15 am 11:15 Cloudy 48 9 41 5 76 76 NNE 6 9 30.53 1034 10 16.0934 0 0
11:35 am 11:35 Cloudy 48 9 41 5 76 76 NNE 9 15 30.53 1034 10 16.0934 0 0
11:55 am 11:55 Cloudy 50 10 41 5 71 71 NNE 7 11 30.53 1034 10 16.0934 0 0
12:15 pm 12:15 Cloudy 48 9 43 6 82 82 NNE 10 17 30.53 1034 10 16.0934 0 0
12:35 pm 12:35 Cloudy 48 9 43 6 82 82 N 7 11 30.5 1033 10 16.0934 0 0
12:55 pm 12:55 Cloudy 48 9 45 7 87 87 NNE 6 9 30.48 1032 10 16.0934 0 0
1:15 pm 13:15 Cloudy 48 9 45 7 87 87 N 8 13 30.48 1032 10 16.0934 0 0
1:35 pm 13:35 Cloudy 48 9 45 7 87 87 N 9 15 30.48 1032 10 16.0934 0 0
1:55 pm 13:55 Cloudy 48 9 45 7 87 87 NNE 9 15 30.48 1032 10 16.0934 0 0
2:15 pm 14:15 Cloudy 46 8 45 7 93 93 N 14 22 30.5 1033 10 16.0934 0 0
2:35 pm 14:35 Cloudy 46 8 45 7 93 93 N 12 19 30.53 1034 7 11.26538 0 0
2:55 pm 14:55 Cloudy with Mist and Fog 45 7 45 7 100 100 NNE 10 17 30.5 1033 2.5 4.02335 0 0
3:15 pm 15:15 Cloudy with Mist and Fog 45 7 45 7 100 100 NNE 12 19 30.53 1034 2 3.21868 0 0
3:35 pm 15:35 Cloudy with Mist and Fog 45 7 45 7 100 100 NNE 14 22 30.53 1034 1.75 2.816345 0 0
3:55 pm 15:55 Cloudy with Mist and Fog 43 6 43 6 100 100 NNE 10 17 30.53 1034 1.75 2.816345 0 0
4:15 pm 16:15 Cloudy with Heavy Rain 43 6 43 6 100 100 NNE 15 24 30.53 1034 2 3.21868 0 0
4:35 pm 16:35 Cloudy with Heavy Rain 43 6 43 6 100 100 NNE 13 20 30.53 1034 2.5 4.02335 0 0
4:55 pm 16:55 Cloudy with Light Rain 43 6 43 6 100 100 NNE 9 15 30.56 1035 5 8.0467 0 0
5:15 pm 17:15 Cloudy 41 5 41 5 100 100 NNE 10 17 30.56 1035 10 16.0934 0 0
5:35 pm 17:35 Cloudy 41 5 41 5 100 100 NE 12 19 30.56 1035 10 16.0934 0 0
5:55 pm 17:55 Cloudy 41 5 41 5 100 100 NNE 8 13 30.56 1035 10 16.0934 0 0
6:15 pm 18:15 Cloudy with Light Rain 41 5 41 5 100 100 NE 8 13 30.56 1035 7 11.26538 0 0
6:35 pm 18:35 Cloudy 41 5 41 5 100 100 NNE 6 9 30.56 1035 10 16.0934 0 0
6:55 pm 18:55 Cloudy 41 5 41 5 100 100 NE 7 11 30.56 1035 10 16.0934 0 0
7:15 pm 19:15 Cloudy with Drizzle 41 5 41 5 100 100 NNE 8 13 30.56 1035 10 16.0934 0 0
7:35 pm 19:35 Cloudy 41 5 41 5 100 100 NE 8 13 30.56 1035 10 16.0934 0 0
7:55 pm 19:55 Cloudy 39 4 39 4 100 100 NNE 7 11 30.59 1036 10 16.0934 0 0
8:15 pm 20:15 Cloudy 39 4 39 4 100 100 NE 5 7 30.59 1036 10 16.0934 0 0
8:35 pm 20:35 Cloudy 39 4 39 4 100 100 NNE 5 7 30.59 1036 10 16.0934 0 0
8:55 pm 20:55 Cloudy 39 4 39 4 100 100 NNE 6 9 30.59 1036 10 16.0934 0 0
9:15 pm 21:15 Cloudy 37 3 37 3 100 100 NNE 6 9 30.59 1036 10 16.0934 0 0
9:35 pm 21:35 Cloudy 37 3 37 3 100 100 NNE 6 9 30.62 1037 10 16.0934 0 0
9:55 pm 21:55 Cloudy 37 3 37 3 100 100 NNE 6 9 30.62 1037 10 16.0934 0 0
10:15 pm 22:15 Cloudy 37 3 37 3 100 100 NNE 5 7 30.62 1037 10 16.0934 0 0
10:35 pm 22:35 Cloudy 37 3 37 3 100 100 Calm 30.59 1036 7 11.26538 0 0
10:55 pm 22:55 Cloudy 39 4 39 4 100 100 E 6 9 30.62 1037 10 16.0934 0 0
11:15 pm 23:15 Cloudy 39 4 39 4 100 100 ENE 3 6 30.59 1036 10 16.0934 0 0
11:35 pm 23:35 Cloudy 39 4 37 3 93 93 E 6 9 30.59 1036 10 16.0934 0 0
11:55 pm 23:55 Cloudy 37 3 37 3 100 100 E 6 9 30.59 1036 10 16.0934 0 0

Powered by AerisWeather